Weather History for Grosse Ile, MI

Change the Weather History Date:

Monday, March 18, 2013

  Actual Average (KDTW) Record (KDTW)
Temperature  
Mean Temperature 30 °F 38 °F  
Max Temperature 37 °F 47 °F 75 °F (2012)
Min Temperature 24 °F 29 °F 7 °F (1916)
Degree Days  
Heating Degree Days 34 27  
Month to date heating degree days 546  
Since 1 July heating degree days 5099  
Cooling Degree Days 0 0  
Month to date cooling degree days 0  
Year to date cooling degree days 0  
Moisture  
Dew Point 27 °F    
Average Humidity 84    
Maximum Humidity 93    
Minimum Humidity 74    
Precipitation  
Precipitation 0.00 in 0.08 in 0.99 in (1925)
Month to date precipitation 1.27  
Year to date precipitation 5.25  
Snow  
Snow 0.00 in 0.20 in 6.80 in (1977)
Month to date snowfall 4.8  
Since 1 July snowfall 38.7  
Snow Depth -    
Sea Level Pressure  
Sea Level Pressure 29.80 in    
Wind  
Wind Speed 11 mph (East)    
Max Wind Speed 16 mph    
Max Gust Speed 24 mph    
Visibility 7 miles    
Events Rain , Snow    
T = Trace of Precipitation, MM = Missing Value Source: NWS Daily Summary

Daily Weather History Graph

Daily Weather History Graph

Search for Another Location

Airport:

Trip Planner

Search our weather history database for the weather conditions in past years. The results will help you decide how hot, cold, wet, or windy it might be!

Date:

Astronomy

Mar. 18, 2013 Rise Set
Actual Time 7:38 AM EDT 7:42 PM EDT
Civil Twilight 7:11 AM EDT 8:10 PM EDT
Nautical Twilight 6:38 AM EDT 8:43 PM EDT
Astronomical Twilight 6:05 AM EDT 9:16 PM EDT
Moon 11:31 AM EDT (3/18) 1:47 AM EDT (3/18)
Length of Visible Light 12h 59m
Length of Day
12h 03m
Waxing Crescent, 40% of the Moon is Illuminated
Mar 18
Waxing Crescent
Mar 19
First Quarter
Mar 27
Full
Apr 3
Last Quarter
Apr 10
New

Hourly Weather History & Observations

Time (EDT) Temp. Windchill Dew Point Humidity Pressure Visibility Wind Dir Wind Speed Gust Speed Precip Events Conditions
12:14 AM 24.8 °F 14.6 °F 19.4 °F 80% 30.17 in 10.0 mi NE 10.4 mph - N/A   Clear
12:34 AM 24.8 °F 15.3 °F 19.4 °F 80% 30.16 in 10.0 mi ENE 9.2 mph - N/A   Clear
12:54 AM 24.8 °F 14.6 °F 19.4 °F 80% 30.15 in 10.0 mi ENE 10.4 mph - N/A   Clear
1:14 AM 24.8 °F 14.6 °F 19.4 °F 80% 30.14 in 10.0 mi ENE 10.4 mph - N/A   Clear
1:34 AM 24.8 °F 14.6 °F 19.4 °F 80% 30.13 in 10.0 mi ENE 10.4 mph - N/A   Clear
1:54 AM 24.8 °F 16.1 °F 19.4 °F 80% 30.12 in 10.0 mi ENE 8.1 mph - N/A   Clear
2:14 AM 24.8 °F 14.6 °F 17.6 °F 74% 30.11 in 10.0 mi ENE 10.4 mph - N/A   Clear
2:34 AM 24.8 °F 15.3 °F 19.4 °F 80% 30.12 in 10.0 mi ENE 9.2 mph - N/A   Clear
2:54 AM 24.8 °F 16.1 °F 19.4 °F 80% 30.12 in 10.0 mi ENE 8.1 mph - N/A   Clear
3:13 AM 24.8 °F 16.1 °F 19.4 °F 80% 30.10 in 10.0 mi ENE 8.1 mph - N/A   Clear
3:34 AM 24.8 °F 16.1 °F 19.4 °F 80% 30.08 in 10.0 mi ENE 8.1 mph - N/A   Clear
3:54 AM 26.6 °F 19.1 °F 19.4 °F 74% 30.07 in 10.0 mi ENE 6.9 mph - N/A   Clear
4:14 AM 26.6 °F 18.2 °F 21.2 °F 80% 30.05 in 10.0 mi ENE 8.1 mph - N/A   Clear
4:34 AM 28.4 °F 20.4 °F 21.2 °F 74% 30.04 in 10.0 mi East 8.1 mph - N/A   Clear
4:54 AM 28.4 °F 18.0 °F 21.2 °F 74% 30.02 in 10.0 mi East 12.7 mph - N/A   Clear
5:14 AM 28.4 °F 19.1 °F 21.2 °F 74% 30.00 in 10.0 mi East 10.4 mph 18.4 mph N/A   Clear
5:34 AM 28.4 °F 19.1 °F 23.0 °F 80% 30.00 in 10.0 mi ENE 10.4 mph 18.4 mph N/A   Clear
5:54 AM 30.2 °F 20.2 °F 23.0 °F 75% 29.98 in 10.0 mi ENE 12.7 mph - N/A   Clear
6:14 AM 30.2 °F 19.8 °F 23.0 °F 75% 29.97 in 10.0 mi ENE 13.8 mph 18.4 mph N/A   Clear
6:34 AM 30.2 °F 19.8 °F 23.0 °F 75% 29.96 in 10.0 mi ENE 13.8 mph 19.6 mph N/A   Clear
6:54 AM 30.2 °F 19.8 °F 23.0 °F 75% 29.94 in 10.0 mi ENE 13.8 mph 19.6 mph N/A   Clear
7:14 AM 30.2 °F 19.8 °F 23.0 °F 75% 29.93 in 10.0 mi East 13.8 mph 20.7 mph N/A   Scattered Clouds
7:34 AM 30.2 °F 19.3 °F 23.0 °F 75% 29.93 in 10.0 mi East 15.0 mph 18.4 mph N/A   Mostly Cloudy
7:54 AM 30.2 °F 20.2 °F 23.0 °F 75% 29.92 in 10.0 mi East 12.7 mph 24.2 mph N/A   Overcast
8:14 AM 30.2 °F 19.3 °F 23.0 °F 75% 29.91 in 10.0 mi ENE 15.0 mph 23.0 mph N/A   Overcast
8:34 AM 30.2 °F 19.3 °F 23.0 °F 75% 29.90 in 10.0 mi East 15.0 mph 19.6 mph N/A   Overcast
8:54 AM 30.2 °F 20.2 °F 24.8 °F 80% 29.89 in 10.0 mi East 12.7 mph 18.4 mph N/A   Overcast
9:14 AM 32.0 °F 22.5 °F 24.8 °F 75% 29.88 in 10.0 mi ENE 12.7 mph 18.4 mph N/A   Overcast
9:34 AM 30.2 °F 19.3 °F 24.8 °F 80% 29.86 in 7.0 mi ENE 15.0 mph 20.7 mph N/A Snow Light Snow
9:54 AM 30.2 °F 19.3 °F 24.8 °F 80% 29.85 in 3.0 mi ENE 15.0 mph 24.2 mph N/A Snow Light Snow
10:14 AM 32.0 °F 21.6 °F 26.6 °F 80% 29.84 in 10.0 mi East 15.0 mph 21.9 mph N/A   Overcast
10:34 AM 32.0 °F 21.2 °F 26.6 °F 80% 29.82 in 4.0 mi East 16.1 mph 23.0 mph N/A Snow Light Snow
10:54 AM 32.0 °F 21.2 °F 26.6 °F 80% 29.81 in 5.0 mi ENE 16.1 mph 24.2 mph N/A   Overcast
11:13 AM 32.0 °F 22.1 °F 26.6 °F 80% 29.81 in 4.0 mi East 13.8 mph - N/A   Overcast
11:34 AM 32.0 °F 22.1 °F 28.4 °F 87% 29.78 in 2.5 mi East 13.8 mph 23.0 mph N/A   Overcast
11:54 AM 32.0 °F 22.1 °F 28.4 °F 87% 29.77 in 1.8 mi East 13.8 mph 21.9 mph N/A   Overcast
12:13 PM 32.0 °F 22.5 °F 28.4 °F 87% 29.76 in 2.0 mi East 12.7 mph 21.9 mph N/A   Overcast
12:34 PM 32.0 °F 23.0 °F 28.4 °F 87% 29.76 in 4.0 mi East 11.5 mph - N/A   Overcast
12:54 PM 32.0 °F 23.6 °F 28.4 °F 87% 29.75 in 2.0 mi East 10.4 mph 16.1 mph N/A   Overcast
1:14 PM 33.8 °F 25.8 °F 30.2 °F 87% 29.74 in 1.8 mi East 10.4 mph 16.1 mph N/A   Overcast
1:34 PM 33.8 °F 26.4 °F 30.2 °F 87% 29.73 in 1.8 mi East 9.2 mph 17.3 mph N/A   Overcast
1:54 PM 33.8 °F 25.3 °F 30.2 °F 87% 29.71 in 1.8 mi East 11.5 mph - N/A   Overcast
2:14 PM 33.8 °F 25.8 °F 30.2 °F 87% 29.70 in 1.5 mi East 10.4 mph - N/A   Overcast
2:34 PM 33.8 °F 27.0 °F 30.2 °F 87% 29.67 in 1.8 mi East 8.1 mph - N/A   Overcast
2:54 PM 33.8 °F 26.4 °F 32.0 °F 93% 29.65 in 2.0 mi East 9.2 mph 18.4 mph N/A   Overcast
3:14 PM 35.6 °F 28.6 °F 32.0 °F 87% 29.63 in 5.0 mi East 9.2 mph 17.3 mph N/A   Light Drizzle
3:34 PM 35.6 °F 28.0 °F 32.0 °F 87% 29.61 in 3.0 mi East 10.4 mph 18.4 mph N/A Rain Light Rain
3:53 PM 35.6 °F 28.6 °F 32.0 °F 87% 29.61 in 3.0 mi East 9.2 mph - N/A Rain Light Rain
4:14 PM 35.6 °F 27.5 °F 32.0 °F 87% 29.59 in 1.5 mi ESE 11.5 mph 20.7 mph N/A Rain Light Rain
4:34 PM 35.6 °F 28.6 °F 32.0 °F 87% 29.59 in 2.0 mi ESE 9.2 mph 17.3 mph N/A   Overcast
4:53 PM 35.6 °F 29.2 °F 32.0 °F 87% 29.59 in 1.2 mi East 8.1 mph - N/A Rain Light Rain
5:14 PM 35.6 °F 29.2 °F 33.8 °F 93% 29.56 in 1.2 mi East 8.1 mph - N/A Rain Rain
5:34 PM 35.6 °F 28.0 °F 32.0 °F 87% 29.55 in 1.5 mi East 10.4 mph - N/A Rain Light Rain
5:53 PM 35.6 °F 28.6 °F 33.8 °F 93% 29.54 in 2.5 mi East 9.2 mph - N/A   Overcast
6:14 PM 35.6 °F 29.2 °F 33.8 °F 93% 29.54 in 4.0 mi East 8.1 mph - N/A   Overcast
6:34 PM 35.6 °F 32.8 °F 33.8 °F 93% 29.55 in 2.0 mi SE 3.5 mph - N/A Rain Light Rain
6:54 PM 35.6 °F - 33.8 °F 93% 29.54 in 1.2 mi Calm Calm - N/A Rain Light Rain
7:14 PM 35.6 °F - 33.8 °F 93% 29.53 in 3.0 mi Calm Calm - N/A   Light Drizzle
7:34 PM 37.4 °F 30.3 °F 35.6 °F 93% 29.54 in 4.0 mi SSE 10.4 mph - N/A Rain Light Rain
7:54 PM 35.6 °F 27.5 °F 33.8 °F 93% 29.55 in 2.5 mi South 11.5 mph - N/A   Overcast
8:14 PM 37.4 °F 31.4 °F 35.6 °F 93% 29.55 in 3.0 mi SSW 8.1 mph - N/A   Overcast
8:34 PM 37.4 °F 30.3 °F 35.6 °F 93% 29.56 in 5.0 mi SW 10.4 mph - N/A   Overcast
8:54 PM 37.4 °F 28.9 °F 35.6 °F 93% 29.57 in 10.0 mi SW 13.8 mph 20.7 mph N/A   Overcast
9:14 PM 37.4 °F 29.8 °F 33.8 °F 87% 29.59 in 10.0 mi WSW 11.5 mph - N/A   Overcast
9:34 PM 37.4 °F 29.8 °F 33.8 °F 87% 29.59 in 10.0 mi WSW 11.5 mph 18.4 mph N/A   Overcast
9:54 PM 37.4 °F 29.8 °F 33.8 °F 87% 29.60 in 10.0 mi WSW 11.5 mph 23.0 mph N/A   Overcast
10:14 PM 37.4 °F 28.9 °F 33.8 °F 87% 29.61 in 10.0 mi WSW 13.8 mph 20.7 mph N/A   Overcast
10:34 PM 35.6 °F 27.1 °F 33.8 °F 93% 29.62 in 10.0 mi WSW 12.7 mph 23.0 mph N/A   Overcast
10:54 PM 35.6 °F 26.2 °F 33.8 °F 93% 29.62 in 10.0 mi WSW 15.0 mph 20.7 mph N/A   Overcast
11:14 PM 35.6 °F 27.1 °F 32.0 °F 87% 29.62 in 10.0 mi WSW 12.7 mph 19.6 mph N/A   Overcast
11:54 PM 35.6 °F 27.1 °F 32.0 °F 87% 29.63 in 10.0 mi WSW 12.7 mph 18.4 mph N/A   Overcast